Location: Bluff Heights
(33.7692°N, 118.1592°W)
Time: 12:32:40
(UTC+00:00)

S-56A Canister/Altair - Pass Details

Date: 01 August 2021
Orbit: 632 x 2500 km, 38.9° (Epoch: 25 September)

Event Time Altitude Azimuth Distance (km) Brightness Sun altitude
Rises 05:45:00 0° 292° (WNW) 6,092 13.0 -29.2°
Reaches altitude 10° 05:49:38 10° 286° (WNW) 4,940 12.2 -29.8°
Maximum altitude 06:01:22 36° 226° (SW) 2,743 10.1 -31.2°
Enters shadow 06:03:34 34° 205° (SSW) 2,713 10.0 -31.4°
